• In Lithuania
  • List of Countries
  • For 7 days
  • Water Temperature
  • Satellite Maps
  • Weather Map
  • Weather Widgets
  • user-avatar
    Login

    Hourly Weather L'viv

    Today, 12 December, Tuesday

    Time Temperature Precipitation Wind Pressure Humidity
    00:00 +4°C° 0 mm 7 mps 723 mmHg 76%
    01:00 +4°C° 0 mm 6 mps 723 mmHg 76%
    02:00 +4°C° 0 mm 3 mps 723 mmHg 84%
    03:00 +4°C° 0 mm 4 mps 723 mmHg 83%
    04:00 +4°C° 0 mm 4 mps 723 mmHg 81%
    05:00 +3°C° 0 mm 5 mps 724 mmHg 80%
    06:00 +5°C° 0 mm 5 mps 724 mmHg 80%
    07:00 +5°C° 0 mm 5 mps 724 mmHg 79%
    08:00 +4°C° 0 mm 4 mps 723 mmHg 85%
    09:00 +6°C° 0 mm 4 mps 724 mmHg 81%
    10:00 +7°C° 0 mm 5 mps 724 mmHg 77%
    11:00 +9°C° 0 mm 6 mps 725 mmHg 73%
    12:00 +9°C° 0 mm 7 mps 726 mmHg 71%
    13:00 +10°C° 0 mm 8 mps 726 mmHg 69%
    14:00 +10°C° 0 mm 8 mps 726 mmHg 68%
    15:00 +9°C° 0 mm 8 mps 727 mmHg 71%
    16:00 +9°C° 0 mm 7 mps 727 mmHg 74%
    17:00 +8°C° 0 mm 7 mps 727 mmHg 77%
    18:00 +8°C° 0 mm 6 mps 728 mmHg 79%
    19:00 +7°C° 0 mm 5 mps 728 mmHg 81%
    20:00 +7°C° 0 mm 5 mps 729 mmHg 83%
    21:00 +7°C° 0.4 mm 5 mps 729 mmHg 85%
    22:00 +6°C° 0.4 mm 4 mps 730 mmHg 86%
    23:00 +6°C° 0.4 mm 4 mps 730 mmHg 87%

    Tomorrow, 13 December, Wednesday

    Time Temperature Precipitation Wind Pressure Humidity
    00:00 +5°C° 0.5 mm 3 mps 731 mmHg 84%
    01:00 +4°C° 0.5 mm 3 mps 731 mmHg 82%
    02:00 +4°C° 0.5 mm 3 mps 732 mmHg 79%
    03:00 +3°C° 0.7 mm 3 mps 732 mmHg 79%
    04:00 +3°C° 0.7 mm 3 mps 732 mmHg 80%
    05:00 +2°C° 0.7 mm 3 mps 733 mmHg 80%
    06:00 +2°C° 0.8 mm 3 mps 733 mmHg 83%
    07:00 +1°C° 0.8 mm 3 mps 733 mmHg 85%
    08:00 +2°C° 0.8 mm 2 mps 733 mmHg 87%
    09:00 +2°C° 0.5 mm 2 mps 734 mmHg 89%
    10:00 +2°C° 0.5 mm 2 mps 734 mmHg 90%
    11:00 +2°C° 0.5 mm 2 mps 734 mmHg 92%
    12:00 +3°C° 0.3 mm 1 mps 734 mmHg 91%
    13:00 +3°C° 0.3 mm 1 mps 734 mmHg 91%
    14:00 +3°C° 0.3 mm 1 mps 734 mmHg 91%
    15:00 +2°C° 0.1 mm 1 mps 734 mmHg 92%
    16:00 +2°C° 0.1 mm 1 mps 733 mmHg 93%
    17:00 +2°C° 0.1 mm 1 mps 733 mmHg 94%
    18:00 +2°C° 0 mm 1 mps 733 mmHg 94%
    19:00 +1°C° 0 mm 1 mps 732 mmHg 94%
    20:00 +1°C° 0 mm 1 mps 732 mmHg 94%
    21:00 +1°C° 0 mm 1 mps 732 mmHg 94%
    22:00 +1°C° 0 mm 1 mps 731 mmHg 94%
    23:00 +1°C° 0 mm 1 mps 731 mmHg 94%

    Day after tomorrow, 14 December, Thursday

    Time Temperature Precipitation Wind Pressure Humidity
    00:00 -1°C° 0 mm 2 mps 730 mmHg 94%
    01:00 -2°C° 0 mm 2 mps 730 mmHg 94%
    02:00 -2°C° 0 mm 3 mps 729 mmHg 94%
    03:00 -2°C° 0 mm 3 mps 729 mmHg 93%
    04:00 -2°C° 0 mm 3 mps 728 mmHg 92%
    05:00 -2°C° 0 mm 3 mps 727 mmHg 92%
    06:00 -3°C° 0 mm 4 mps 727 mmHg 89%
    07:00 -2°C° 0 mm 4 mps 726 mmHg 86%
    08:00 -2°C° 0 mm 5 mps 726 mmHg 83%
    09:00 -1°C° 0 mm 5 mps 725 mmHg 81%
    10:00 0°C° 0 mm 5 mps 725 mmHg 79%
    11:00 +1°C° 0 mm 6 mps 724 mmHg 76%
    12:00 +1°C° 0.1 mm 6 mps 724 mmHg 76%
    13:00 +2°C° 0.1 mm 6 mps 724 mmHg 76%
    14:00 +2°C° 0.1 mm 6 mps 724 mmHg 77%
    15:00 +2°C° 0 mm 6 mps 724 mmHg 78%
    16:00 +1°C° 0 mm 6 mps 724 mmHg 79%
    17:00 +1°C° 0 mm 6 mps 725 mmHg 80%
    18:00 +1°C° 0 mm 6 mps 725 mmHg 79%
    19:00 +1°C° 0 mm 6 mps 725 mmHg 78%
    20:00 +1°C° 0 mm 6 mps 726 mmHg 77%
    21:00 +1°C° 0 mm 5 mps 726 mmHg 78%
    22:00 0°C° 0 mm 5 mps 726 mmHg 80%
    23:00 0°C° 0 mm 4 mps 726 mmHg 82%

    15 December, Friday

    Time Temperature Precipitation Wind Pressure Humidity
    00:00 -1°C° 0 mm 4 mps 726 mmHg 81%
    01:00 -1°C° 0 mm 4 mps 726 mmHg 80%
    02:00 0°C° 0 mm 3 mps 726 mmHg 79%
    03:00 0°C° 0 mm 3 mps 725 mmHg 80%
    04:00 0°C° 0 mm 3 mps 724 mmHg 81%
    05:00 0°C° 0 mm 3 mps 724 mmHg 81%
    06:00 -1°C° 0 mm 4 mps 723 mmHg 80%
    07:00 -1°C° 0 mm 4 mps 722 mmHg 78%
    08:00 0°C° 0 mm 4 mps 722 mmHg 77%
    09:00 +1°C° 0 mm 5 mps 721 mmHg 77%
    10:00 +2°C° 0 mm 5 mps 721 mmHg 77%
    11:00 +3°C° 0 mm 5 mps 721 mmHg 77%
    12:00 +3°C° 0.7 mm 5 mps 720 mmHg 81%
    13:00 +4°C° 0.7 mm 4 mps 720 mmHg 85%
    14:00 +4°C° 0.7 mm 3 mps 719 mmHg 89%
    15:00 +3°C° 2.1 mm 3 mps 720 mmHg 91%
    16:00 +3°C° 2.1 mm 3 mps 720 mmHg 92%
    17:00 +4°C° 2.1 mm 2 mps 720 mmHg 94%
    18:00 +3°C° 0.3 mm 2 mps 720 mmHg 90%
    19:00 +2°C° 0.3 mm 3 mps 721 mmHg 86%
    20:00 +2°C° 0.3 mm 3 mps 721 mmHg 82%
    21:00 +1°C° 0.1 mm 3 mps 722 mmHg 82%
    22:00 +2°C° 0.1 mm 2 mps 722 mmHg 81%
    23:00 +1°C° 0.1 mm 2 mps 722 mmHg 81%

    16 December, Saturday

    Time Temperature Precipitation Wind Pressure Humidity
    00:00 +1°C° 0.5 mm 2 mps 722 mmHg 82%
    01:00 +2°C° 0.5 mm 1 mps 722 mmHg 84%
    02:00 +2°C° 0.5 mm 1 mps 722 mmHg 85%
    03:00 +2°C° 0.5 mm 1 mps 722 mmHg 87%
    04:00 +1°C° 0.5 mm 1 mps 722 mmHg 88%
    05:00 +1°C° 0.5 mm 1 mps 722 mmHg 89%
    06:00 -1°C° 0.2 mm 2 mps 723 mmHg 90%
    07:00 -1°C° 0.2 mm 2 mps 723 mmHg 90%
    08:00 -1°C° 0.2 mm 2 mps 724 mmHg 91%
    09:00 -1°C° 0 mm 2 mps 724 mmHg 89%
    10:00 0°C° 0 mm 3 mps 725 mmHg 87%
    11:00 0°C° 0 mm 3 mps 725 mmHg 85%
    12:00 0°C° 0 mm 3 mps 726 mmHg 83%
    13:00 +1°C° 0 mm 3 mps 726 mmHg 81%
    14:00 +1°C° 0 mm 3 mps 726 mmHg 80%
    15:00 +1°C° 0 mm 3 mps 727 mmHg 81%
    16:00 0°C° 0 mm 3 mps 727 mmHg 82%
    17:00 -1°C° 0 mm 3 mps 728 mmHg 84%
    18:00 -1°C° 0 mm 3 mps 728 mmHg 85%
    19:00 -1°C° 0 mm 3 mps 729 mmHg 86%
    20:00 -2°C° 0 mm 3 mps 729 mmHg 87%
    21:00 -1°C° 0 mm 3 mps 730 mmHg 87%
    22:00 -1°C° 0 mm 3 mps 730 mmHg 87%
    23:00 -1°C° 0 mm 3 mps 731 mmHg 87%

    17 December, Sunday

    Time Temperature Precipitation Wind Pressure Humidity
    00:00 -1°C° 0 mm 3 mps 731 mmHg 87%
    01:00 -2°C° 0 mm 2 mps 731 mmHg 87%
    02:00 -2°C° 0 mm 2 mps 732 mmHg 86%
    03:00 -2°C° 0 mm 2 mps 732 mmHg 86%
    04:00 -2°C° 0 mm 2 mps 732 mmHg 86%
    05:00 -3°C° 0 mm 2 mps 732 mmHg 86%
    06:00 -3°C° 0 mm 2 mps 733 mmHg 87%
    07:00 -3°C° 0 mm 2 mps 733 mmHg 87%
    08:00 -3°C° 0 mm 2 mps 733 mmHg 87%
    09:00 -2°C° 0 mm 2 mps 734 mmHg 84%
    10:00 -1°C° 0 mm 2 mps 734 mmHg 82%
    11:00 -1°C° 0 mm 2 mps 735 mmHg 80%
    12:00 +1°C° 0 mm 2 mps 735 mmHg 80%
    13:00 +1°C° 0 mm 2 mps 735 mmHg 79%
    14:00 +1°C° 0 mm 2 mps 735 mmHg 79%
    15:00 +1°C° 0 mm 2 mps 735 mmHg 81%
    16:00 -1°C° 0 mm 2 mps 735 mmHg 83%
    17:00 0°C° 0 mm 1 mps 736 mmHg 84%
    18:00 -2°C° 0 mm 2 mps 736 mmHg 85%
    19:00 -2°C° 0 mm 2 mps 737 mmHg 86%
    20:00 -2°C° 0 mm 2 mps 737 mmHg 86%
    21:00 -3°C° 0 mm 2 mps 737 mmHg 87%
    22:00 -3°C° 0 mm 2 mps 738 mmHg 87%
    23:00 -3°C° 0 mm 2 mps 738 mmHg 87%
    Show more